Location: Asheville, NC
(35.6000°N, 82.5500°W)
Time: 17:12:54
(UTC-04:00)

Vanguard 1 Rocket - Pass Details

Date: 15 February 2018
Orbit: 652 x 4225 km, 34.3° (Epoch: 20 May)

Event Time Altitude Azimuth Distance (km) Brightness Sun altitude
Exits shadow 02:13:33 64° 94° (E) 4,222 10.4 -59.5°
Drops below altitude 10° 02:29:17 10° 85° (E) 6,007 11.8 -57.1°
Sets 02:33:00 0° 85° (E) 6,660 12.2 -56.4°
